COSMOS 2251 DEB, 36053

Orbit data source: Space-Track

COSMOS 2251 DEB, 36053 is space debris in LEO originally from a launch on Wed, 16 Jun 1993 UTC launched from the Plesetsk Missile And Space Complex (PKMTR). The debris from Iridium 33, an American commercial communications satellite, has been tracked extensively since its accidental collision with the defunct Russian satellite Cosmos 2251 in 2009. This event, occurring at high speed in low Earth orbit (LEO), generated thousands of pieces of space debris, significantly increasing the risk of further collisions. The Iridium 33 debris cloud has impacted space traffic management and orbital debris mitigation strategies, making it a subject of ongoing study in space situational awareness.

Loading next visibility...
Identifier
36053, 1993-036AXQ
Orbit
LEO
Country
Flag of CISCIS
Related business
Manufacturer
Unknown
Mission
Spacecraft
Bus & Motor
Unknown
Mass
Unknown
Launch date (UTC)
1993-06-16 (33 years ago)
Launch vehicle
Unknown
Launch site
Plesetsk Missile And Space Complex (PKMTR)
Object type
Payload
Rocket body
Debris
Shape & HBR
Unknown shape, 0.1 m
Radar Cross Section
Small (<0.1 m²)

Expand to show TLE details & history
Last TLE update: 1 day ago

TLE from 1 day ago
0 COSMOS 2251 DEB
1 36053U 93036AXQ 26119.60722691  .00007497  00000-0  15823-2 0  9998
2 36053  73.8710 247.6712 0030743 167.4187 192.7752 14.59248807894546
Epoch: 2026-04-29T14:34Z
TLE epoch observation values (Epoch: 2026-04-29T14:34:24.405Z)
Latitude
Longitude
171.50375°
Altitude
719.446 km
Speed
7.485 km/s
True Right ascension
16h 30m 41s
True Declination
0° 00' 00"
Sunlit
Object was in full shadow at epoch
Visualization orbit readout
Latitude
Unknown
Longitude
Unknown
Altitude
Unknown
Speed
Unknown
Apparent Right ascension
Unknown
Apparent Declination
Unknown
Sunlit
N/A
Visualization observer readout
Local Sidereal Time
22:07:56
Azimuth
Unknown
Elevation
Unknown
Doppler factor
Unknown
Orbital elements
Apogee altitude
714.953 km
Perigee altitude
671.474 km
Semi-major axis
7,071.35 km
Eccentricity
0.00307
Inclination
73.871°
RAAN
247.6712°
Arg. of periapsis
167.4187°
True anomaly
192.69759°
Mean anomaly
192.7752°
Eccentric anomaly
192.73637°
Mean motion
3.64997 °/min
Orbital period
98.63 mins
BSTAR
0.0015823
Loading maneuver chart data...
Computing Atmospheric mass density...

Documentation

Showing up to 5 results
|